Change the Weather History Date:

Sunday, June 16, 2013

  Actual Average Record
Temperature  
Mean Temperature 77 °F -  
Max Temperature 86 °F 85 °F 102 °F (1918)
Min Temperature 70 °F 62 °F 39 °F (1917)
Cooling Degree Days 12    
Growing Degree Days 27 (Base 50)    
Moisture  
Dew Point 68 °F    
Average Humidity 77    
Maximum Humidity 93    
Minimum Humidity 55    
Precipitation  
Precipitation 0.00 in - - ()
Sea Level Pressure  
Sea Level Pressure 29.98 in    
Wind  
Wind Speed 5 mph (SSE)    
Max Wind Speed 12 mph    
Max Gust Speed -    
Visibility 10 miles    
Events      
Averages and records for this station are not official NWS values.
T = Trace of Precipitation, MM = Missing Value Source: NWS Daily Summary

Daily Weather History Graph

Daily Weather History Graph

Search for Another Location

Airport or City:

Trip Planner

Search our weather history database for the weather conditions in past years. The results will help you decide how hot, cold, wet, or windy it might be!

Date:

Astronomy

Jun. 16, 2013 Rise Set
Actual Time 5:34 AM CDT 8:21 PM CDT
Civil Twilight 5:03 AM CDT 8:52 PM CDT
Nautical Twilight 4:24 AM CDT 9:31 PM CDT
Astronomical Twilight 3:39 AM CDT 10:16 PM CDT
Moon 1:02 PM CDT (6/16) 12:32 AM CDT (6/16)
Length of Visible Light 15h 49m
Length of Day
14h 46m
Waxing Crescent, 50% of the Moon is Illuminated
Jun 16
Waxing Crescent
Jun 16
First Quarter
Jun 23
Full
Jun 29
Last Quarter
Jul 8
New

Hourly Weather History & Observations

Time (CDT) Temp. Heat Index Dew Point Humidity Pressure Visibility Wind Dir Wind Speed Gust Speed Precip Events Conditions
12:52 AM 73.9 °F - 66.9 °F 79% 30.02 in 10.0 mi NNW 5.8 mph - N/A   Clear
1:52 AM 72.0 °F - 66.9 °F 84% 30.01 in 10.0 mi NE 3.5 mph - N/A   Clear
2:52 AM 70.0 °F - 66.0 °F 87% 30.00 in 10.0 mi East 3.5 mph - N/A   Clear
3:52 AM 70.0 °F - 66.0 °F 87% 29.99 in 10.0 mi ESE 3.5 mph - N/A   Clear
4:52 AM 71.1 °F - 66.0 °F 84% 29.98 in 10.0 mi ESE 6.9 mph - N/A   Clear
5:52 AM 70.0 °F - 66.0 °F 87% 29.98 in 10.0 mi ESE 3.5 mph - N/A   Clear
6:52 AM 71.1 °F - 66.0 °F 84% 30.00 in 10.0 mi SE 4.6 mph - N/A   Partly Cloudy
7:52 AM 73.0 °F - 66.0 °F 79% 30.01 in 10.0 mi ESE 4.6 mph - N/A   Clear
8:52 AM 73.9 °F - 66.0 °F 76% 30.01 in 10.0 mi SE 5.8 mph - N/A   Clear
9:52 AM 77.0 °F - 66.9 °F 71% 29.99 in 10.0 mi SSE 4.6 mph - N/A   Clear
10:52 AM 79.0 °F - 68.0 °F 69% 29.99 in 10.0 mi South 8.1 mph - 0.00 in   Partly Cloudy
11:52 AM 82.9 °F 85.8 °F 68.0 °F 60% 29.99 in 10.0 mi SW 8.1 mph - N/A   Clear
12:52 PM 84.9 °F 87.6 °F 66.9 °F 55% 29.98 in 10.0 mi SW 11.5 mph - N/A   Clear
1:52 PM 84.9 °F 88.2 °F 68.0 °F 57% 29.98 in 10.0 mi West 6.9 mph - N/A   Mostly Cloudy
2:52 PM 81.0 °F 84.1 °F 69.1 °F 67% 29.97 in 10.0 mi NW 6.9 mph - N/A   Mostly Cloudy
3:52 PM 80.1 °F 83.2 °F 70.0 °F 71% 29.96 in 10.0 mi NW 5.8 mph - 0.00 in   Mostly Cloudy
4:52 PM 80.1 °F 82.9 °F 69.1 °F 69% 29.95 in 10.0 mi West 3.5 mph - 0.00 in   Partly Cloudy
5:52 PM 82.9 °F 86.5 °F 69.1 °F 63% 29.94 in 10.0 mi SSW 3.5 mph - N/A   Clear
6:52 PM 82.0 °F 85.9 °F 70.0 °F 67% 29.94 in 10.0 mi Calm Calm - N/A   Clear
7:52 PM 79.0 °F - 71.1 °F 77% 29.94 in 10.0 mi Calm Calm - N/A   Clear
8:52 PM 75.0 °F - 71.1 °F 87% 29.94 in 10.0 mi SE 3.5 mph - N/A   Clear
9:52 PM 73.9 °F - 71.1 °F 91% 29.94 in 10.0 mi ESE 3.5 mph - N/A   Clear
10:52 PM 73.0 °F - 71.1 °F 93% 29.95 in 7.0 mi Calm Calm - N/A   Clear
11:52 PM 73.0 °F - 71.1 °F 93% 29.94 in 7.0 mi SSE 4.6 mph - N/A   Clear